Location: ???? ?????????
(31.1304°N, 31.7111°E)
Time: 16:38:52
(UTC+00:00)

Altair - All Passes

Search period start: 27 February 2021 00:00
Search period end: 09 March 2021 00:00
Orbit: 1501 x 1682 km, 47.2° (Epoch: 26 February)

Date Brightness Start Highest point End Pass type
(mag) Time Alt. Az. Time Alt. Az. Time Alt. Az.
27 Feb - 01:18:13 10° WNW 01:27:47 56° SW 01:37:35 10° SSE visible
27 Feb - 03:29:02 10° WSW 03:31:19 11° WSW 03:33:37 10° SW visible
27 Feb - 14:28:42 10° SSE 14:34:26 18° SE 14:40:12 10° E daylight
27 Feb - 16:28:53 10° SW 16:38:02 79° SE 16:47:26 10° NE visible
27 Feb - 18:34:49 10° W 18:43:25 41° NNW 18:52:19 10° NE visible
27 Feb - 20:42:32 10° NW 20:50:36 30° N 20:58:55 10° ENE visible
27 Feb - 22:48:10 10° NW 22:57:31 50° NNE 23:07:10 10° ESE visible
28 Feb - 00:52:57 10° WNW 01:02:36 62° SW 01:12:31 10° SSE visible
28 Feb - 03:02:13 10° W 03:06:13 13° WSW 03:10:17 10° SSW visible
28 Feb - 14:04:22 10° SSE 14:09:23 16° ESE 14:14:24 10° E daylight
28 Feb - 16:03:47 10° SW 16:12:53 73° SE 16:22:13 10° NE visible
28 Feb - 18:09:27 10° W 18:18:07 43° NNW 18:27:05 10° NE visible
28 Feb - 20:17:13 10° WNW 20:25:13 30° N 20:33:28 10° ENE visible
28 Feb - 22:23:00 10° NW 22:32:13 47° NNE 22:41:44 10° E night (unlit)
01 Mar - 00:27:44 10° NW 00:37:26 67° SW 00:47:25 10° SE visible
01 Mar - 02:36:02 10° W 02:41:08 15° WSW 02:46:17 10° SSW visible
01 Mar - 13:40:17 10° SSE 13:44:20 14° ESE 13:48:23 10° E daylight
01 Mar - 15:38:44 10° SW 15:47:45 67° SE 15:56:59 10° NE daylight
01 Mar - 17:44:06 10° W 17:52:50 45° NNW 18:01:51 10° NE visible
01 Mar - 19:51:52 10° WNW 19:59:49 30° N 20:08:01 10° ENE visible
01 Mar - 21:57:49 10° NW 22:06:55 44° NNE 22:16:18 10° E visible
02 Mar - 00:02:31 10° NW 00:12:15 73° SW 00:22:17 10° SE visible
02 Mar - 02:10:08 10° W 02:16:02 18° SW 02:22:02 10° SSW visible
02 Mar - 13:16:39 10° SE 13:19:17 11° ESE 13:21:56 10° ESE daylight
02 Mar - 15:13:42 10° SSW 15:22:38 61° SE 15:31:45 10° ENE daylight
02 Mar - 17:18:45 10° W 17:27:34 48° NNW 17:36:38 10° NE visible
02 Mar - 19:26:31 10° WNW 19:34:27 30° N 19:42:37 10° NE visible
02 Mar - 21:32:38 10° NW 21:41:36 42° NNE 21:50:51 10° E visible
02 Mar - 23:37:19 10° NW 23:47:04 79° SW 23:57:08 10° SE visible
03 Mar - 01:44:23 10° W 01:50:56 20° SW 01:57:36 10° SSW visible
03 Mar - 14:48:42 10° SSW 14:57:31 55° SE 15:06:30 10° ENE daylight
03 Mar - 16:53:27 10° WSW 17:02:18 51° NNW 17:11:26 10° NE visible
03 Mar - 19:01:09 10° WNW 19:09:04 30° N 19:17:13 10° NE visible
03 Mar - 21:07:27 10° NW 21:16:16 40° NNE 21:25:23 10° E visible
03 Mar - 23:12:08 10° NW 23:21:53 85° SW 23:31:57 10° SE night (unlit)
04 Mar - 01:18:45 10° W 01:25:50 23° SW 01:33:03 10° S visible
04 Mar - 14:23:44 10° SSW 14:32:26 50° SE 14:41:14 10° ENE daylight
04 Mar - 16:28:08 10° WSW 16:37:03 54° NNW 16:46:14 10° NE visible
04 Mar - 18:35:47 10° WNW 18:43:41 30° N 18:51:50 10° NE visible
04 Mar - 20:42:16 10° NW 20:50:57 38° NNE 20:59:55 10° E visible
04 Mar - 22:46:57 10° NW 22:56:41 90° NE 23:06:45 10° SE night (unlit)
05 Mar - 00:53:12 10° WNW 01:00:43 25° SW 01:08:25 10° S visible
05 Mar - 13:58:47 10° SSW 14:07:20 45° SE 14:15:57 10° ENE daylight
05 Mar - 16:02:50 10° WSW 16:11:49 58° NNW 16:21:02 10° NE visible
05 Mar - 18:10:23 10° WNW 18:18:19 30° N 18:26:28 10° NE visible
05 Mar - 20:17:03 10° NW 20:25:36 36° NNE 20:34:25 10° E visible
05 Mar - 22:21:47 10° NW 22:31:28 84° NE 22:41:30 10° SE night (unlit)
06 Mar - 00:27:43 10° WNW 00:35:36 28° SW 00:43:42 10° S night (unlit)
06 Mar - 13:33:53 10° SSW 13:42:15 41° SE 13:50:39 10° ENE daylight
06 Mar - 15:37:33 10° WSW 15:46:36 62° NNW 15:55:51 10° NE daylight
06 Mar - 17:45:00 10° WNW 17:52:57 31° N 18:01:08 10° NE visible
06 Mar - 19:51:50 10° NW 20:00:16 35° NNE 20:08:56 10° E visible
06 Mar - 21:56:37 10° NW 22:06:16 78° NE 22:16:14 10° SE visible
07 Mar - 00:02:18 10° WNW 00:10:29 32° SW 00:18:55 10° S night (unlit)
07 Mar - 13:09:01 10° SSW 13:17:10 37° SE 13:25:18 10° ENE daylight
07 Mar - 15:12:18 10° WSW 15:21:24 67° NW 15:30:40 10° NE daylight
07 Mar - 17:19:36 10° WNW 17:27:36 32° NNW 17:35:49 10° NE visible
07 Mar - 19:26:37 10° NW 19:34:55 33° NNE 19:43:28 10° ENE visible
07 Mar - 21:31:27 10° NW 21:41:02 73° NE 21:50:58 10° ESE visible
07 Mar - 23:36:54 10° WNW 23:45:22 35° SW 23:54:05 10° S night (unlit)
08 Mar - 12:44:12 10° S 12:52:05 33° SE 12:59:57 10° ENE daylight
08 Mar - 14:47:04 10° WSW 14:56:12 72° NW 15:05:29 10° NE daylight
08 Mar - 16:54:12 10° WNW 17:02:15 33° NNW 17:10:31 10° NE visible
08 Mar - 19:01:23 10° NW 19:09:34 32° NNE 19:17:58 10° ENE visible
08 Mar - 21:06:18 10° NW 21:15:48 68° NE 21:25:40 10° ESE visible
08 Mar - 23:11:33 10° WNW 23:20:15 39° SW 23:29:12 10° SSE night (unlit)
